Estación de Lontue

Ultimos registro cada 15 minutos 62
Estación Fecha / Hora Temperatura Humedad Lluvia Velocidad Dirección Radiación Presion
62 Lontue 05-05-2026 15:15 18,1 62,6 0 1,9 8 149,4 987,2
61 Lontue 05-05-2026 15:00 18,1 62,2 0 2,3 1 115,6 987,2
60 Lontue 05-05-2026 14:45 18,4 60,8 0 1,5 355 166,9 986,8
59 Lontue 05-05-2026 14:30 18,4 61,9 0 1,1 345 168,1 987
58 Lontue 05-05-2026 14:15 18,1 62,9 0 0,8 320 165,6 987
57 Lontue 05-05-2026 14:00 18,2 62 0 0 347 164,4 987,1
56 Lontue 05-05-2026 13:45 17,9 60,6 0 0,8 345 154,4 987,2
55 Lontue 05-05-2026 13:30 17,7 62,4 0 0,4 345 176,9 987,2
54 Lontue 05-05-2026 13:15 17,7 64,7 0 1,5 352 171,9 987,1
53 Lontue 05-05-2026 13:00 17,5 64,6 0 1,1 282 161,9 987
52 Lontue 05-05-2026 12:45 17,4 63,5 0 0,4 267 153,1 987,4
51 Lontue 05-05-2026 12:30 17,5 62,2 0 0 267 170,6 987,4
50 Lontue 05-05-2026 12:15 17,9 61,9 0 0,4 267 190,6 987,4
49 Lontue 05-05-2026 12:00 17,4 65,1 0 0 267 245,6 987,6
48 Lontue 05-05-2026 11:45 17,2 64,1 0 0,4 230 239,4 987,6
47 Lontue 05-05-2026 11:30 17 65,6 0 0,4 229 294,4 987,9
46 Lontue 05-05-2026 11:15 17,2 66,9 0 0 147 333,1 987,8
45 Lontue 05-05-2026 11:00 16,4 70,7 0 0,4 147 396,9 988
44 Lontue 05-05-2026 10:45 15,5 73,1 0 0,8 147 230,6 988
43 Lontue 05-05-2026 10:30 15,1 74,1 0 0,4 142 188,1 987,9
42 Lontue 05-05-2026 10:15 14,8 74,3 0 0,4 143 131,9 988,3
41 Lontue 05-05-2026 10:00 14,6 75,4 0 1,1 122 161,9 988,4
40 Lontue 05-05-2026 09:45 13,9 77,1 0 1,9 118 198,1 988,5
39 Lontue 05-05-2026 09:30 13,1 81,3 0 1,1 114 125,6 988,6
38 Lontue 05-05-2026 09:15 12,5 82,6 0 1,5 102 124,4 988,5
37 Lontue 05-05-2026 09:00 12 83,8 0 1,9 174 90,6 988,4
36 Lontue 05-05-2026 08:45 11,3 86 0 0,4 216 78,1 988,5
35 Lontue 05-05-2026 08:30 10,8 87 0 0,4 298 44,4 988,1
34 Lontue 05-05-2026 08:15 10,6 86,8 0 1,9 267 30,6 988,1
33 Lontue 05-05-2026 08:00 10,2 87,4 0 1,1 222 14,4 987,7
32 Lontue 05-05-2026 07:45 10,1 87,5 0 1,5 254 5,6 988,9
31 Lontue 05-05-2026 07:30 10 87,6 0 0,8 302 0,6 988,7
30 Lontue 05-05-2026 07:15 10,1 86,8 0 0,8 336 0,6 989
29 Lontue 05-05-2026 07:00 10 87,1 0 3,4 24 0,6 989
28 Lontue 05-05-2026 06:45 9,8 89,5 0 1,5 28 0,6 988,9
27 Lontue 05-05-2026 06:30 9,5 90,1 0 1,5 46 0,6 989,9
26 Lontue 05-05-2026 06:15 9,5 90,7 0 1,1 350 0,6 990,5
25 Lontue 05-05-2026 06:00 9,3 90,7 0 0,8 209 0,6 989,5
24 Lontue 05-05-2026 05:45 9,3 90,3 0 0,4 215 0,6 990,1
23 Lontue 05-05-2026 05:30 9,4 90,3 0 0 154 0,6 990
22 Lontue 05-05-2026 05:15 9,5 90,5 0 0 153 0,6 989,8
21 Lontue 05-05-2026 05:00 9,4 90,6 0 0 152 0,6 990,2
20 Lontue 05-05-2026 04:45 9,5 91 0 0,4 153 0,6 989,9
19 Lontue 05-05-2026 04:30 9,1 91,2 0 0 154 0,6 990,4
18 Lontue 05-05-2026 04:15 9 91,1 0 0 154 0,6 989,7
17 Lontue 05-05-2026 04:00 9,1 91,1 0 0 154 0,6 989,3
16 Lontue 05-05-2026 03:45 9 90,8 0 0 154 0,6 989,5
15 Lontue 05-05-2026 03:30 8,8 90,3 0 0 154 0,6 989,5
14 Lontue 05-05-2026 03:15 8,9 89,9 0 0 154 0,6 989,7
13 Lontue 05-05-2026 03:00 9,1 89,7 0 0 154 0,6 989,7
12 Lontue 05-05-2026 02:45 9,3 89,5 0 0 154 0,6 989,7
11 Lontue 05-05-2026 02:30 9,2 89,6 0 0 154 0,6 990
10 Lontue 05-05-2026 02:15 9,1 89,9 0 0 154 0,6 990,2
9 Lontue 05-05-2026 02:00 9,1 90,4 0 0 154 0,6 990,2
8 Lontue 05-05-2026 01:45 9,1 90,8 0 0 154 0,6 990,2
7 Lontue 05-05-2026 01:30 8,8 91,6 0 0 154 0,6 990,1
6 Lontue 05-05-2026 01:15 8,4 91,2 0 0 154 0,6 990,3
5 Lontue 05-05-2026 01:00 8 91,1 0 0 154 0,6 990,4
4 Lontue 05-05-2026 00:45 7,7 90,5 0 0 154 0,6 990,5
3 Lontue 05-05-2026 00:30 8,6 90,1 0 0 154 0,6 990,6
2 Lontue 05-05-2026 00:15 8,8 89,5 0 0 154 0,6 990,5
1 Lontue 05-05-2026 00:00 9 88,7 0 0 154 0,6 990,4